Time,TemperatureF,DewpointF,PressureIn,WindDirection,WindDirectionDegrees,WindSpeedMPH,WindSpeedGustMPH,Humidity,HourlyPrecipIn,Conditions,Clouds,dailyrainin,SolarRadiationWatts/m^2,SoftwareType,DateUTC
2013-04-01 00:05:00,50.1,28.0,31.48,ESE,116,2.0,4.0,43,0.00,,,0.00,0,weatherlink.com 1.10,2013-04-01 06:05:00,
2013-04-01 00:20:00,50.3,28.0,31.48,ESE,114,2.0,4.0,42,0.00,,,0.00,0,weatherlink.com 1.10,2013-04-01 06:20:00,
2013-04-01 00:35:00,49.8,28.0,31.48,ESE,122,5.0,5.0,44,0.00,,,0.00,0,weatherlink.com 1.10,2013-04-01 06:35:00,
2013-04-01 00:51:00,49.5,28.0,31.49,ESE,112,3.0,6.0,44,0.00,,,0.00,0,weatherlink.com 1.10,2013-04-01 06:51:00,
2013-04-01 01:06:00,49.7,28.0,31.49,SE,137,0.0,4.0,44,0.00,,,0.00,0,weatherlink.com 1.10,2013-04-01 07:06:00,
2013-04-01 01:21:00,48.0,28.0,31.49,South,180,0.0,1.0,46,0.00,,,0.00,0,weatherlink.com 1.10,2013-04-01 07:21:00,
2013-04-01 01:36:00,46.6,28.0,31.50,SE,136,5.0,7.0,49,0.00,,,0.00,0,weatherlink.com 1.10,2013-04-01 07:36:00,
2013-04-01 01:51:00,46.0,28.0,31.50,SE,126,4.0,5.0,50,0.00,,,0.00,0,weatherlink.com 1.10,2013-04-01 07:51:00,
2013-04-01 02:06:00,46.5,28.0,31.51,ESE,117,0.0,3.0,48,0.00,,,0.00,0,weatherlink.com 1.10,2013-04-01 08:06:00,
2013-04-01 02:36:00,46.5,28.0,31.51,ESE,119,0.0,0.0,48,0.00,,,0.00,0,weatherlink.com 1.10,2013-04-01 08:36:00,
2013-04-01 03:06:00,46.0,28.0,31.51,ESE,119,0.0,1.0,49,0.00,,,0.00,0,weatherlink.com 1.10,2013-04-01 09:06:00,
2013-04-01 03:21:00,45.4,28.0,31.51,ESE,119,0.0,0.0,50,0.00,,,0.00,0,weatherlink.com 1.10,2013-04-01 09:21:00,
2013-04-01 03:51:00,44.3,27.0,31.52,ESE,119,0.0,3.0,52,0.00,,,0.00,0,weatherlink.com 1.10,2013-04-01 09:51:00,
2013-04-01 04:06:00,44.2,27.0,31.52,ESE,119,0.0,1.0,52,0.00,,,0.00,0,weatherlink.com 1.10,2013-04-01 10:06:00,
2013-04-01 04:36:00,43.1,27.0,31.53,ESE,119,1.0,3.0,53,0.00,,,0.00,0,weatherlink.com 1.10,2013-04-01 10:36:00,
2013-04-01 04:51:00,42.9,27.0,31.53,ESE,119,4.0,4.0,53,0.00,,,0.00,0,weatherlink.com 1.10,2013-04-01 10:51:00,
2013-04-01 05:06:00,42.8,27.0,31.53,ESE,119,2.0,3.0,53,0.00,,,0.00,0,weatherlink.com 1.10,2013-04-01 11:06:00,
2013-04-01 05:21:00,42.0,27.0,31.53,ESE,119,1.0,3.0,55,0.00,,,0.00,0,weatherlink.com 1.10,2013-04-01 11:21:00,
2013-04-01 05:36:00,42.8,27.0,31.53,ESE,119,1.0,2.0,53,0.00,,,0.00,0,weatherlink.com 1.10,2013-04-01 11:36:00,
2013-04-01 05:51:00,42.9,26.0,31.53,ESE,119,0.0,2.0,52,0.00,,,0.00,0,weatherlink.com 1.10,2013-04-01 11:51:00,
2013-04-01 06:06:00,42.8,27.0,31.53,ESE,119,0.0,0.0,53,0.00,,,0.00,0,weatherlink.com 1.10,2013-04-01 12:06:00,
2013-04-01 06:21:00,42.4,26.0,31.53,ESE,119,0.0,1.0,53,0.00,,,0.00,0,weatherlink.com 1.10,2013-04-01 12:21:00,
2013-04-01 06:36:00,41.8,26.0,31.53,ESE,119,0.0,0.0,54,0.00,,,0.00,0,weatherlink.com 1.10,2013-04-01 12:36:00,
2013-04-01 06:51:00,41.1,26.0,31.53,ESE,119,0.0,2.0,56,0.00,,,0.00,0,weatherlink.com 1.10,2013-04-01 12:51:00,
2013-04-01 07:06:00,40.1,26.0,31.53,ESE,119,0.0,1.0,58,0.00,,,0.00,0,weatherlink.com 1.10,2013-04-01 13:06:00,
2013-04-01 07:21:00,40.4,26.0,31.53,ESE,119,0.0,0.0,57,0.00,,,0.00,9,weatherlink.com 1.10,2013-04-01 13:21:00,
2013-04-01 07:36:00,40.5,26.0,31.53,ESE,119,0.0,1.0,57,0.00,,,0.00,19,weatherlink.com 1.10,2013-04-01 13:36:00,
2013-04-01 07:51:00,40.4,26.0,31.54,ESE,119,0.0,1.0,58,0.00,,,0.00,30,weatherlink.com 1.10,2013-04-01 13:51:00,
2013-04-01 08:06:00,40.4,26.0,31.54,ESE,119,0.0,1.0,58,0.00,,,0.00,33,weatherlink.com 1.10,2013-04-01 14:06:00,
2013-04-01 08:21:00,40.8,26.0,31.54,ESE,119,0.0,0.0,57,0.00,,,0.00,33,weatherlink.com 1.10,2013-04-01 14:21:00,
2013-04-01 08:37:00,39.0,27.0,31.54,SE,132,2.0,4.0,62,0.00,,,0.00,32,weatherlink.com 1.10,2013-04-01 14:37:00,
2013-04-01 08:52:00,37.9,27.0,31.54,SE,132,3.0,3.0,65,0.00,,,0.00,174,weatherlink.com 1.10,2013-04-01 14:52:00,
2013-04-01 09:07:00,37.6,28.0,31.55,South,169,2.0,5.0,69,0.00,,,0.00,236,weatherlink.com 1.10,2013-04-01 15:07:00,
2013-04-01 09:22:00,39.0,29.0,31.54,South,188,4.0,6.0,67,0.00,,,0.00,276,weatherlink.com 1.10,2013-04-01 15:22:00,
2013-04-01 09:37:00,40.1,29.0,31.54,South,188,0.0,5.0,66,0.00,,,0.00,325,weatherlink.com 1.10,2013-04-01 15:37:00,
2013-04-01 09:52:00,42.1,30.0,31.54,South,188,0.0,1.0,63,0.00,,,0.00,353,weatherlink.com 1.10,2013-04-01 15:52:00,
2013-04-01 10:07:00,42.3,30.0,31.54,South,188,0.0,4.0,62,0.00,,,0.00,410,weatherlink.com 1.10,2013-04-01 16:07:00,
2013-04-01 10:22:00,42.4,31.0,31.53,South,189,2.0,5.0,64,0.00,,,0.00,452,weatherlink.com 1.10,2013-04-01 16:22:00,
2013-04-01 10:37:00,43.9,31.0,31.53,SSW,192,0.0,2.0,62,0.00,,,0.00,496,weatherlink.com 1.10,2013-04-01 16:37:00,
2013-04-01 10:52:00,44.5,32.0,31.53,NNW,338,0.0,4.0,61,0.00,,,0.00,541,weatherlink.com 1.10,2013-04-01 16:52:00,
2013-04-01 11:07:00,45.6,33.0,31.52,WSW,245,4.0,5.0,61,0.00,,,0.00,548,weatherlink.com 1.10,2013-04-01 17:07:00,
2013-04-01 11:22:00,46.1,32.0,31.52,WSW,240,3.0,4.0,58,0.00,,,0.00,510,weatherlink.com 1.10,2013-04-01 17:22:00,
2013-04-01 11:37:00,46.7,32.0,31.52,WSW,254,3.0,6.0,57,0.00,,,0.00,682,weatherlink.com 1.10,2013-04-01 17:37:00,
2013-04-01 11:52:00,48.1,31.0,31.51,NW,319,3.0,5.0,51,0.00,,,0.00,584,weatherlink.com 1.10,2013-04-01 17:52:00,
2013-04-01 12:07:00,48.9,30.0,31.50,NW,315,4.0,6.0,49,0.00,,,0.00,592,weatherlink.com 1.10,2013-04-01 18:07:00,
2013-04-01 12:22:00,49.2,30.0,31.50,NNW,335,2.0,6.0,48,0.00,,,0.00,712,weatherlink.com 1.10,2013-04-01 18:22:00,
2013-04-01 12:37:00,50.3,31.0,31.50,NW,323,0.0,5.0,48,0.00,,,0.00,738,weatherlink.com 1.10,2013-04-01 18:37:00,
2013-04-01 12:52:00,52.6,31.0,31.49,WNW,301,4.0,10.0,44,0.00,,,0.00,740,weatherlink.com 1.10,2013-04-01 18:52:00,
2013-04-01 13:07:00,53.5,32.0,31.48,NW,313,5.0,9.0,44,0.00,,,0.00,622,weatherlink.com 1.10,2013-04-01 19:07:00,
2013-04-01 13:22:00,54.6,33.0,31.47,NW,308,9.0,11.0,45,0.00,,,0.00,689,weatherlink.com 1.10,2013-04-01 19:22:00,
2013-04-01 13:37:00,55.7,34.0,31.46,NW,313,6.0,9.0,44,0.00,,,0.00,742,weatherlink.com 1.10,2013-04-01 19:37:00,
2013-04-01 13:53:00,56.7,32.0,31.45,WNW,292,5.0,9.0,40,0.00,,,0.00,728,weatherlink.com 1.10,2013-04-01 19:53:00,
2013-04-01 14:08:00,57.3,33.0,31.44,WNW,286,5.0,12.0,40,0.00,,,0.00,747,weatherlink.com 1.10,2013-04-01 20:08:00,
2013-04-01 14:23:00,57.7,33.0,31.43,WNW,290,10.0,13.0,40,0.00,,,0.00,802,weatherlink.com 1.10,2013-04-01 20:23:00,
2013-04-01 14:38:00,59.0,33.0,31.43,WNW,302,7.0,11.0,37,0.00,,,0.00,807,weatherlink.com 1.10,2013-04-01 20:38:00,
2013-04-01 14:53:00,60.2,32.0,31.43,North,350,4.0,11.0,35,0.00,,,0.00,798,weatherlink.com 1.10,2013-04-01 20:53:00,
2013-04-01 15:08:00,60.2,33.0,31.42,NNW,334,7.0,14.0,36,0.00,,,0.00,726,weatherlink.com 1.10,2013-04-01 21:08:00,
2013-04-01 15:23:00,60.5,32.0,31.42,North,349,14.0,15.0,34,0.00,,,0.00,686,weatherlink.com 1.10,2013-04-01 21:23:00,
2013-04-01 15:38:00,60.3,32.0,31.42,North,351,8.0,14.0,35,0.00,,,0.00,628,weatherlink.com 1.10,2013-04-01 21:38:00,
2013-04-01 15:53:00,60.5,31.0,31.41,North,5,10.0,14.0,33,0.00,,,0.00,633,weatherlink.com 1.10,2013-04-01 21:53:00,
2013-04-01 16:23:00,60.6,30.0,31.41,NNW,346,9.0,15.0,32,0.00,,,0.00,570,weatherlink.com 1.10,2013-04-01 22:23:00,
2013-04-01 16:38:00,60.9,31.0,31.40,North,360,5.0,15.0,33,0.00,,,0.00,570,weatherlink.com 1.10,2013-04-01 22:38:00,
2013-04-01 16:53:00,60.9,29.0,31.40,NW,313,9.0,14.0,30,0.00,,,0.00,519,weatherlink.com 1.10,2013-04-01 22:53:00,
2013-04-01 17:08:00,61.1,30.0,31.40,NNW,344,9.0,13.0,31,0.00,,,0.00,501,weatherlink.com 1.10,2013-04-01 23:08:00,
2013-04-01 17:23:00,60.7,30.0,31.40,NW,321,8.0,17.0,32,0.00,,,0.00,475,weatherlink.com 1.10,2013-04-01 23:23:00,
2013-04-01 17:38:00,60.3,29.0,31.40,North,5,5.0,14.0,31,0.00,,,0.00,403,weatherlink.com 1.10,2013-04-01 23:38:00,
2013-04-01 17:53:00,59.7,29.0,31.40,North,11,5.0,13.0,31,0.00,,,0.00,246,weatherlink.com 1.10,2013-04-01 23:53:00,
2013-04-01 18:08:00,59.9,29.0,31.40,North,360,3.0,11.0,31,0.00,,,0.00,341,weatherlink.com 1.10,2013-04-02 00:08:00,
2013-04-01 18:23:00,60.7,29.0,31.40,NNE,15,3.0,10.0,30,0.00,,,0.00,297,weatherlink.com 1.10,2013-04-02 00:23:00,
2013-04-01 18:38:00,60.1,28.0,31.40,NNW,346,6.0,11.0,30,0.00,,,0.00,221,weatherlink.com 1.10,2013-04-02 00:38:00,
2013-04-01 18:53:00,59.2,29.0,31.40,NNW,348,5.0,11.0,32,0.00,,,0.00,169,weatherlink.com 1.10,2013-04-02 00:53:00,
2013-04-01 19:08:00,59.4,31.0,31.40,North,9,8.0,10.0,34,0.00,,,0.00,160,weatherlink.com 1.10,2013-04-02 01:08:00,
2013-04-01 19:23:00,58.6,32.0,31.40,North,5,5.0,9.0,36,0.00,,,0.00,97,weatherlink.com 1.10,2013-04-02 01:23:00,
2013-04-01 19:38:00,57.9,32.0,31.40,North,360,1.0,5.0,37,0.00,,,0.00,53,weatherlink.com 1.10,2013-04-02 01:38:00,
2013-04-01 19:53:00,57.0,31.0,31.41,NE,52,3.0,5.0,37,0.00,,,0.00,14,weatherlink.com 1.10,2013-04-02 01:53:00,
2013-04-01 20:08:00,55.5,31.0,31.41,NNE,15,3.0,6.0,39,0.00,,,0.00,0,weatherlink.com 1.10,2013-04-02 02:08:00,
2013-04-01 20:23:00,54.9,30.0,31.41,NNE,17,2.0,4.0,39,0.00,,,0.00,0,weatherlink.com 1.10,2013-04-02 02:23:00,
2013-04-01 20:38:00,54.2,31.0,31.42,NNE,19,2.0,7.0,41,0.00,,,0.00,0,weatherlink.com 1.10,2013-04-02 02:38:00,
2013-04-01 20:53:00,53.7,30.0,31.42,NE,51,1.0,4.0,41,0.00,,,0.00,0,weatherlink.com 1.10,2013-04-02 02:53:00,
2013-04-01 21:08:00,53.2,30.0,31.43,NNE,32,1.0,5.0,42,0.00,,,0.00,0,weatherlink.com 1.10,2013-04-02 03:08:00,
2013-04-01 21:23:00,53.0,30.0,31.43,NNE,20,1.0,3.0,42,0.00,,,0.00,0,weatherlink.com 1.10,2013-04-02 03:23:00,
2013-04-01 21:38:00,52.3,30.0,31.44,NNE,21,0.0,4.0,42,0.00,,,0.00,0,weatherlink.com 1.10,2013-04-02 03:38:00,
2013-04-01 21:53:00,50.5,30.0,31.44,North,5,1.0,3.0,45,0.00,,,0.00,0,weatherlink.com 1.10,2013-04-02 03:53:00,
2013-04-01 22:08:00,50.3,30.0,31.45,NE,34,0.0,4.0,45,0.00,,,0.00,0,weatherlink.com 1.10,2013-04-02 04:08:00,
2013-04-01 22:23:00,51.0,30.0,31.45,NNE,33,0.0,4.0,45,0.00,,,0.00,0,weatherlink.com 1.10,2013-04-02 04:23:00,
2013-04-01 22:38:00,50.3,30.0,31.45,NNE,27,2.0,5.0,46,0.00,,,0.00,0,weatherlink.com 1.10,2013-04-02 04:38:00,
2013-04-01 22:53:00,50.0,30.0,31.45,NNE,21,3.0,6.0,46,0.00,,,0.00,0,weatherlink.com 1.10,2013-04-02 04:53:00,
2013-04-01 23:08:00,50.2,30.0,31.46,NE,49,2.0,11.0,47,0.00,,,0.00,0,weatherlink.com 1.10,2013-04-02 05:08:00,
2013-04-01 23:23:00,49.5,29.0,31.46,ENE,60,3.0,7.0,46,0.00,,,0.00,0,weatherlink.com 1.10,2013-04-02 05:23:00,
2013-04-01 23:53:00,49.7,29.0,31.46,NE,36,2.0,4.0,45,0.00,,,0.00,0,weatherlink.com 1.10,2013-04-02 05:53:00,